Wind_Speed
58 59 59 59 58 57 56 56 55 53 51 49 48 48 48 48 48 50 51 51 52 53 53 54 54 53 52 51 51 51 52 53 54 54 55 57 59 60 62 63 65 66
57 56 56 56 55 54 53 53 52 50 49 48 48 48 48 49 51 51 51 51 52 54 55 55 54 53 52 52 53 53 54 55 55 56 57 59 61 62 63 65 66 66
53 52 52 53 52 52 52 51 50 49 48 47 48 48 48 50 50 50 50 52 53 55 55 55 54 53 53 54 54 54 55 56 56 57 59 61 62 64 65 66 66 66
51 51 52 52 51 51 52 51 50 48 47 47 49 48 48 49 48 48 50 52 54 54 54 54 54 54 55 56 55 55 56 57 58 59 61 63 64 64 65 65 65 64
50 51 51 52 52 52 52 51 51 49 48 48 48 47 47 48 48 49 51 53 54 54 54 55 55 56 57 57 55 56 57 59 60 62 63 63 64 64 64 64 62 60
49 50 51 51 51 51 51 50 50 49 48 47 46 46 47 48 49 50 52 54 55 56 56 56 57 58 58 57 56 57 59 61 62 62 63 64 64 63 62 60 58 57
47 48 49 49 50 49 49 48 48 47 47 47 47 48 49 50 51 52 54 55 56 57 58 58 59 60 59 57 58 59 60 61 62 62 63 62 61 59 58 56 55 55
45 45 45 46 46 46 46 46 47 47 47 47 49 50 51 52 52 54 55 57 58 59 59 60 61 60 59 58 59 60 61 62 62 62 60 59 57 56 55 53 53 53
42 42 42 43 44 44 45 45 46 47 48 48 49 50 52 52 53 55 56 58 59 60 60 61 60 59 58 59 59 60 61 61 60 58 56 55 54 53 52 52 52 53
41 41 41 41 42 43 44 44 45 47 48 49 50 51 52 54 55 56 57 58 59 59 59 59 58 58 58 58 59 59 59 58 56 54 53 52 52 51 51 51 53 55
41 40 40 40 41 41 42 43 43 45 46 48 50 51 53 54 55 56 56 57 56 56 56 56 56 57 57 57 57 56 55 53 52 51 49 49 50 50 51 53 55 56
41 40 39 39 39 40 40 41 41 42 44 46 47 49 51 52 52 53 53 53 53 53 54 54 55 55 55 54 53 52 51 50 48 47 47 50 51 51 53 55 56 57
41 40 39 39 39 39 39 39 40 41 41 43 44 46 47 47 48 48 49 49 50 51 51 52 52 52 52 51 50 49 48 47 45 47 50 52 52 52 54 55 56 57
41 41 40 39 39 39 39 39 39 39 40 41 42 42 43 44 45 46 46 47 48 48 48 49 49 49 49 49 48 47 45 45 47 50 53 54 53 54 55 56 57 58
42 41 40 40 39 39 39 39 39 39 39 39 40 40 41 42 43 43 44 44 44 44 45 45 46 47 47 47 47 47 48 50 52 55 56 56 55 56 57 57 58 59
43 42 41 39 39 38 38 38 38 39 38 38 38 39 40 40 41 41 41 40 40 40 41 43 45 46 47 48 50 52 54 56 56 58 59 58 59 59 59 58 58 60
43 41 39 38 37 36 36 36 36 37 37 37 38 39 39 39 40 39 38 37 37 39 41 43 45 47 49 53 55 57 59 59 60 61 61 61 61 61 59 58 59 61
42 40 38 36 36 36 37 36 36 38 39 39 39 40 40 40 39 36 34 35 37 38 41 45 48 49 53 56 59 61 62 63 63 64 63 63 62 60 59 59 61 62
40 39 37 37 37 37 38 37 36 36 38 39 40 42 43 42 40 37 36 37 37 39 43 48 51 52 55 58 60 62 64 66 66 66 65 64 62 60 60 61 62 63
40 39 37 37 38 37 36 36 35 35 36 37 39 42 44 44 42 41 41 40 40 42 46 49 51 54 57 59 62 64 67 68 68 67 65 64 63 63 63 63 63 64
39 38 38 37 38 37 36 35 36 37 37 36 36 38 40 42 42 42 42 42 43 46 48 50 53 57 60 62 64 67 69 70 70 68 66 65 65 66 66 65 64 64
39 39 38 38 38 37 36 36 37 37 37 36 34 34 35 38 40 41 43 44 47 49 50 52 56 61 64 66 67 69 71 71 70 68 68 68 69 69 67 66 65 64
40 39 38 38 38 37 37 37 37 37 36 35 34 33 35 38 41 43 46 47 49 50 51 54 59 64 66 68 70 71 72 71 70 69 69 71 71 70 67 65 65 65
40 40 39 38 37 37 38 38 37 36 36 35 34 36 39 41 41 43 46 48 48 48 50 56 61 64 66 68 71 72 72 71 70 70 71 73 72 69 66 65 65 66
41 40 39 37 38 38 39 39 38 38 38 38 37 38 41 41 41 42 44 44 43 44 49 57 63 65 66 68 70 71 71 71 70 71 73 73 70 67 65 65 66 68
42 40 39 38 39 39 39 40 40 40 40 40 39 39 40 40 42 45 45 43 42 45 52 60 64 65 66 67 69 70 71 71 72 73 73 70 68 66 66 66 68 69
Wind_Direction
266 268 270 271 272 273 273 275 276 277 277 280 281 282 283 283 284 285 286 287 288 288 289 291 294 297 299 300 299 297 296 296 297 297 298 298 299 300 301 302 303 304
266 267 269 270 272 272 272 274 275 275 277 279 279 280 280 281 282 284 285 285 286 286 287 290 293 296 298 299 299 298 297 297 298 298 298 299 300 301 302 303 304 305
267 268 269 270 271 272 273 274 275 275 277 278 278 279 279 280 281 282 283 283 283 285 287 290 293 295 298 299 299 298 297 297 298 298 298 299 300 301 303 304 305 305
268 269 270 271 272 273 274 275 276 277 277 277 278 278 277 278 279 280 281 281 282 284 287 290 292 295 297 298 298 297 297 298 298 298 298 300 301 303 304 305 305 305
268 269 271 272 272 273 274 275 276 276 276 276 276 276 275 276 278 279 279 280 282 284 286 289 291 294 297 297 297 297 297 298 298 298 299 301 303 304 305 305 306 306
268 269 270 271 271 272 273 274 274 275 274 273 272 272 273 274 276 277 278 279 281 283 286 289 291 294 296 296 296 296 297 297 298 299 301 302 304 304 305 306 307 307
268 269 269 270 271 272 272 272 273 272 271 270 268 268 270 272 274 275 277 279 281 283 286 289 291 293 295 295 296 296 296 297 299 300 302 303 304 305 306 307 307 308
268 269 270 271 272 272 272 271 271 270 269 268 267 268 270 272 274 275 277 278 281 283 286 288 291 293 294 295 295 296 297 298 300 301 303 304 305 307 308 308 308 309
269 270 271 271 272 272 271 270 270 269 269 269 269 270 271 273 274 275 277 279 281 284 286 289 291 292 294 294 295 296 297 299 301 303 304 306 307 308 309 309 309 310
270 271 271 272 272 272 271 271 270 270 269 270 271 272 272 273 275 276 278 281 283 286 288 289 291 292 293 294 295 297 298 300 302 304 306 308 310 311 311 311 312 312
270 271 272 272 273 273 273 272 272 271 271 271 272 272 273 275 276 278 281 283 285 287 288 290 291 292 293 295 296 298 299 301 304 307 309 312 313 313 313 314 314 314
270 271 272 273 273 274 274 274 274 274 273 273 274 274 275 277 279 281 283 285 286 287 288 289 291 293 294 296 297 299 301 303 307 309 312 314 315 315 315 315 315 315
270 271 272 273 274 275 275 276 276 277 277 277 277 277 278 280 281 282 284 285 286 287 289 291 292 294 295 296 298 300 302 306 309 311 313 315 316 317 317 317 316 316
270 272 273 274 275 277 278 279 280 280 279 279 279 279 280 281 281 283 284 285 287 289 291 292 293 294 295 297 300 302 304 307 309 312 315 316 317 318 319 318 317 317
270 272 273 275 277 279 280 280 280 280 279 279 280 280 281 281 282 284 285 288 290 292 293 293 294 295 298 300 302 304 305 306 309 313 316 318 319 319 319 318 317 318
270 272 274 276 278 279 280 281 281 280 280 279 279 280 280 282 283 285 288 290 291 292 293 295 297 299 301 304 305 305 306 308 311 314 316 318 319 319 318 317 318 318
269 271 274 276 278 278 278 279 277 275 275 276 277 278 280 283 285 286 287 289 292 295 298 298 300 303 304 305 305 305 307 309 311 314 316 317 318 318 317 317 318 318
269 271 273 274 275 275 275 276 275 272 272 275 278 279 282 286 289 288 288 292 298 303 303 301 302 303 303 303 304 305 306 308 310 312 314 315 317 317 317 317 318 317
268 270 272 273 274 275 277 280 281 277 273 275 278 280 283 286 287 287 289 294 300 301 300 299 301 302 301 301 302 303 304 306 308 310 312 314 315 316 317 317 317 316
267 270 272 274 275 277 279 281 281 279 276 277 278 279 281 282 282 283 286 290 292 293 293 296 298 298 298 299 300 300 302 304 306 308 311 313 315 316 317 316 316 316
267 270 272 274 276 278 280 280 280 279 279 280 278 278 279 279 280 282 284 285 286 287 290 294 295 295 295 296 297 298 299 302 305 308 310 312 314 316 316 315 314 315
267 269 271 273 276 277 278 279 280 281 282 282 280 278 277 276 278 279 279 279 281 284 288 291 292 292 292 293 294 296 298 301 304 307 309 311 313 314 314 313 313 314
267 269 271 272 275 276 277 278 280 282 283 281 280 278 275 273 273 274 275 276 278 282 286 289 291 292 292 292 294 296 298 301 303 305 307 309 311 312 311 311 312 313
267 269 271 273 274 276 277 277 278 279 279 278 277 275 275 275 274 273 275 278 280 284 288 288 288 289 291 293 294 295 297 299 301 302 304 306 308 309 309 310 311 313
268 270 271 273 273 274 275 276 277 278 277 278 277 274 275 277 276 274 275 279 283 286 286 283 282 283 286 288 290 292 294 296 298 299 302 304 306 307 308 310 311 312
268 270 271 272 271 272 274 275 277 278 278 280 279 277 276 274 270 267 269 271 271 272 274 276 278 281 284 286 288 290 292 294 296 298 301 303 304 306 308 309 309 309
Height
10710 10710 10710 10710 10710 10710 10710 10709 10709 10708 10707 10707 10705 10704 10703 10702 10701 10700 10699 10698 10696 10695 10694 10692 10691 10690 10688 10687 10685 10683 10681 10679 10677 10675 10672 10669 10666 10663 10659 10655 10651 10648
10705 10706 10706 10705 10705 10705 10704 10704 10704 10704 10703 10702 10700 10699 10698 10697 10696 10695 10694 10693 10691 10690 10689 10688 10687 10685 10684 10682 10680 10678 10676 10674 10672 10670 10667 10664 10660 10657 10653 10649 10646 10642
10700 10700 10700 10700 10699 10699 10699 10699 10699 10699 10699 10697 10695 10694 10694 10692 10692 10691 10690 10688 10687 10685 10684 10683 10682 10680 10679 10677 10675 10674 10671 10669 10667 10664 10661 10658 10655 10651 10648 10644 10640 10635
10695 10695 10694 10694 10694 10694 10693 10693 10694 10694 10693 10691 10689 10689 10689 10688 10687 10687 10685 10683 10682 10681 10680 10678 10677 10675 10674 10672 10670 10668 10666 10664 10662 10659 10656 10652 10649 10646 10642 10638 10634 10629
10690 10690 10689 10689 10689 10688 10688 10688 10688 10688 10688 10686 10685 10685 10685 10684 10683 10682 10680 10678 10677 10676 10675 10673 10672 10670 10669 10667 10665 10663 10660 10658 10656 10653 10650 10647 10644 10640 10636 10632 10628 10624
10685 10685 10684 10684 10683 10683 10683 10683 10683 10683 10683 10682 10681 10681 10680 10680 10678 10677 10675 10674 10672 10671 10670 10668 10667 10665 10664 10662 10660 10657 10655 10652 10650 10647 10645 10642 10638 10635 10631 10626 10622 10619
10681 10680 10680 10679 10678 10678 10678 10678 10678 10678 10678 10678 10677 10676 10676 10675 10673 10672 10670 10669 10667 10666 10665 10663 10662 10660 10659 10656 10654 10652 10649 10647 10644 10642 10639 10636 10633 10629 10625 10621 10617 10614
10676 10676 10676 10674 10674 10673 10673 10673 10673 10673 10673 10673 10672 10671 10670 10669 10668 10667 10665 10664 10663 10661 10660 10658 10656 10655 10653 10651 10648 10646 10643 10641 10639 10637 10634 10631 10627 10624 10620 10616 10613 10609
10672 10672 10671 10670 10669 10669 10668 10668 10668 10669 10669 10668 10667 10666 10665 10664 10663 10662 10660 10659 10658 10656 10655 10653 10651 10649 10647 10645 10643 10641 10638 10636 10634 10632 10629 10625 10622 10619 10615 10611 10608 10604
10667 10667 10667 10666 10665 10664 10664 10664 10664 10664 10664 10663 10662 10661 10660 10659 10658 10657 10655 10654 10653 10651 10649 10647 10646 10644 10642 10640 10638 10636 10634 10631 10629 10627 10624 10620 10617 10614 10610 10607 10603 10598
10663 10663 10663 10662 10661 10660 10660 10660 10660 10660 10659 10658 10657 10656 10655 10654 10653 10652 10651 10649 10648 10646 10644 10642 10640 10639 10637 10635 10633 10631 10629 10627 10625 10622 10619 10616 10612 10609 10606 10602 10597 10593
10659 10659 10658 10658 10657 10656 10655 10655 10655 10655 10654 10653 10652 10651 10650 10649 10648 10647 10646 10644 10642 10641 10639 10637 10635 10634 10632 10630 10628 10626 10624 10622 10620 10617 10614 10611 10608 10604 10601 10597 10592 10588
10654 10654 10654 10653 10652 10652 10651 10651 10650 10650 10649 10648 10647 10646 10645 10645 10644 10642 10641 10639 10637 10636 10634 10632 10631 10629 10627 10625 10624 10622 10620 10618 10615 10613 10610 10607 10603 10600 10596 10592 10588 10583
10650 10650 10650 10649 10648 10648 10647 10646 10646 10645 10644 10643 10642 10641 10641 10640 10639 10637 10636 10634 10633 10632 10630 10628 10626 10624 10622 10621 10619 10617 10615 10613 10611 10609 10605 10602 10599 10595 10592 10588 10583 10579
10645 10645 10645 10645 10644 10644 10643 10642 10641 10640 10639 10638 10637 10637 10636 10635 10634 10632 10631 10630 10629 10627 10625 10623 10622 10620 10618 10616 10614 10612 10611 10609 10607 10604 10601 10597 10594 10591 10587 10583 10579 10574
10641 10641 10641 10641 10641 10640 10639 10638 10636 10634 10633 10633 10632 10631 10630 10630 10629 10628 10627 10626 10624 10623 10621 10619 10617 10615 10613 10611 10609 10608 10606 10603 10601 10599 10596 10593 10589 10586 10583 10579 10575 10570
10637 10638 10638 10638 10637 10636 10634 10632 10630 10628 10627 10627 10627 10626 10626 10625 10625 10624 10623 10621 10620 10618 10617 10615 10613 10611 10609 10606 10604 10602 10600 10598 10596 10593 10591 10588 10585 10582 10578 10574 10571 10566
10633 10634 10634 10634 10633 10631 10629 10627 10626 10624 10623 10623 10623 10622 10622 10622 10621 10620 10619 10617 10616 10615 10612 10610 10608 10606 10604 10601 10599 10596 10594 10592 10591 10588 10586 10583 10580 10577 10573 10570 10566 10562
10630 10630 10630 10629 10628 10626 10624 10624 10623 10622 10620 10621 10621 10620 10619 10619 10618 10617 10615 10614 10613 10611 10609 10606 10604 10602 10599 10596 10594 10591 10589 10587 10586 10584 10581 10578 10575 10572 10568 10565 10562 10558
10626 10626 10625 10625 10623 10622 10621 10620 10619 10618 10617 10618 10617 10616 10616 10615 10614 10613 10612 10611 10610 10608 10605 10603 10600 10597 10594 10591 10589 10587 10584 10583 10581 10578 10576 10573 10570 10567 10563 10560 10556 10553
10621 10621 10621 10620 10619 10619 10618 10616 10615 10614 10613 10614 10613 10613 10612 10611 10610 10609 10607 10607 10605 10604 10602 10599 10596 10592 10589 10586 10584 10582 10580 10578 10576 10573 10570 10567 10564 10561 10558 10555 10551 10548
10616 10616 10616 10615 10615 10615 10614 10612 10611 10610 10609 10609 10608 10608 10607 10606 10605 10604 10603 10602 10601 10599 10598 10595 10591 10587 10584 10582 10579 10577 10575 10572 10570 10568 10565 10562 10559 10556 10553 10549 10546 10542
10611 10611 10611 10611 10611 10610 10609 10608 10607 10606 10604 10603 10603 10603 10602 10601 10600 10599 10598 10597 10596 10595 10594 10591 10586 10581 10578 10576 10573 10571 10569 10567 10564 10562 10559 10556 10554 10551 10548 10544 10541 10537
10606 10606 10606 10606 10606 10605 10604 10603 10603 10601 10599 10598 10598 10598 10596 10595 10596 10595 10594 10592 10591 10591 10590 10586 10581 10577 10574 10571 10568 10566 10564 10561 10559 10557 10554 10552 10549 10546 10543 10539 10535 10531
10600 10600 10601 10601 10601 10600 10599 10598 10598 10597 10595 10594 10594 10594 10592 10590 10591 10591 10589 10588 10587 10587 10584 10580 10575 10573 10571 10568 10565 10562 10559 10557 10555 10552 10550 10547 10544 10541 10537 10533 10529 10525
10595 10595 10596 10596 10596 10595 10594 10593 10592 10592 10590 10589 10589 10589 10588 10587 10587 10586 10584 10583 10582 10580 10577 10573 10570 10568 10566 10563 10560 10557 10554 10552 10550 10547 10545 10542 10539 10535 10532 10527 10523 10519